Location: Unspecified
(50.7693°N, 0.0000°E)
Time: 07:40:13
(UTC+00:00)

Transit 2A - Pass Details

Date: 17 August 2020
Orbit: 591 x 967 km, 66.7° (Epoch: 20 September)

Event Time Altitude Azimuth Distance (km) Brightness Sun altitude
Rises 23:43:42 0° 311° (NW) 3,645 10.2 -26.1°
Reaches altitude 10° 23:46:58 10° 327° (NNW) 2,714 9.6 -26.1°
Maximum altitude 23:51:45 21° 16° (NNE) 2,005 8.8 -26.2°
Drops below altitude 10° 23:56:29 10° 64° (ENE) 2,678 9.1 -26.2°
Sets 23:59:39 0° 80° (E) 3,583 9.6 -26.2°
